[[{"header":{"parameterUnit":"m.s-1","parameterCategory":1,"la1":30.2991,"la2":30.254,"lo1":-89.0895,"lo2":-89.0444,"dy":0.0017,"dx":0.0017,"nx":28,"ny":28,"refTime":"2024-04-22T03:00:00:Z","depth":0,"parameterNumber":2,"parameterNumberName":"U-component_of_WINDS"},"data":[0,0,0,0,0,0,0,0,0,0,0,0,0,0,0,0,0,0,0,0,0,0,0,0,0,0,0,0,0,0,0,0,0,0,0,0,0,0,0,0,0,0,0,0,0,0,0,0,0,0,0,0,0,0,0,0,0,0,-0.5823,-0.5823,0,-0.5807,-0.5807,-0.5807,-0.5792,-0.5792,-0.5791,-0.5791,-0.5775,-0.5775,-0.5775,0,0,0,0,0,0,0,0,0,0,0,0,0,-0.5839,-0.5839,-0.5823,-0.5823,-0.5823,-0.5807,-0.5807,-0.5807,-0.5792,-0.5792,-0.5791,-0.5791,-0.5775,-0.5775,-0.5775,0,0,0,0,0,0,0,0,0,0,0,0,0,-0.5829,-0.5839,-0.5823,-0.5813,-0.5812,-0.5808,-0.5807,-0.5807,-0.5792,-0.5792,-0.5791,-0.5791,-0.5775,-0.5775,-0.5775,-0.5779,0,0,-0.5774,-0.5774,0,0,0,0,0,0,0,0,-0.5829,-0.5828,-0.5815,-0.5814,-0.5813,-0.5801,-0.5807,-0.5798,-0.5792,-0.58,-0.5791,-0.5791,-0.5784,-0.5783,-0.5781,-0.5778,-0.5777,-0.5774,-0.5773,-0.5773,-0.5773,0,0,0,0,0,0,0,-0.583,-0.5829,-0.5817,-0.5815,-0.5813,-0.5809,-0.5808,-0.5805,-0.5794,-0.5799,-0.5798,-0.5796,-0.5784,-0.5781,-0.578,-0.5777,-0.5774,-0.5773,-0.5773,-0.5773,-0.5775,-0.5776,0,0,0,0,0,0,-0.5832,-0.5829,-0.5817,-0.5816,-0.582,-0.5809,-0.5807,-0.5805,-0.5794,-0.5792,-0.5796,-0.5795,-0.5782,-0.5781,-0.578,-0.5783,-0.5773,-0.5773,-0.5773,-0.5775,-0.5775,-0.5776,0,0,0,0,0,0,-0.5833,-0.5831,-0.5818,-0.5823,-0.5821,-0.5809,-0.5807,-0.5805,-0.5803,-0.5792,-0.579,-0.5796,-0.5782,-0.578,-0.5779,-0.5782,-0.5773,-0.5773,-0.5775,-0.5775,-0.5776,-0.579,0,0,0,0,0,0,-0.5833,-0.5832,-0.5833,-0.5823,-0.582,-0.5818,-0.5807,-0.5805,-0.5802,-0.5801,-0.5791,-0.5789,-0.5781,-0.5779,-0.5778,-0.5782,-0.5772,-0.5774,-0.5775,-0.5776,-0.5789,-0.5791,-0.5792,0,0,0,0,0,-0.5834,-0.5838,-0.5833,-0.5832,-0.5822,-0.5818,-0.5817,-0.5807,-0.5803,-0.5804,-0.5797,-0.5789,-0.5782,-0.5779,-0.5778,-0.5781,-0.5774,-0.5775,-0.5775,-0.5788,-0.579,-0.5792,0,0,0,0,0,0,-0.5849,-0.5836,-0.5831,-0.5832,-0.5826,-0.5815,-0.5817,-0.581,-0.5805,-0.5804,-0.5793,-0.5791,-0.5791,-0.5786,-0.5783,-0.5784,-0.5777,-0.5777,-0.5787,-0.5789,-0.5791,-0.5792,-0.5772,0,0,0,0,0,-0.5853,-0.5851,-0.5839,-0.5841,-0.5839,-0.5828,-0.5826,-0.5819,-0.5813,-0.581,-0.5803,-0.5797,-0.5793,-0.5791,-0.5787,-0.5788,-0.5785,-0.579,-0.5791,-0.5792,-0.5793,-0.5793,-0.5794,-0.5778,-0.5778,-0.5778,0,0,-0.586,-0.5853,-0.5852,-0.5844,-0.5839,-0.5837,-0.5826,-0.5824,-0.5822,-0.581,-0.5808,-0.5802,-0.5795,-0.5795,-0.5794,-0.579,-0.5797,-0.5793,-0.5794,-0.5794,-0.5793,-0.5795,-0.5796,-0.5778,-0.5778,-0.5778,0,0,-0.5873,-0.5867,-0.5868,-0.5862,-0.5854,-0.5847,-0.5847,-0.5837,-0.5833,-0.583,-0.5821,-0.5818,-0.5812,-0.5807,-0.5803,-0.5812,-0.5805,-0.5811,-0.5819,-0.5819,-0.582,-0.5821,-0.5824,-0.5825,-0.5811,-0.5812,-0.5812,0,-0.5883,-0.5879,-0.5869,-0.5867,-0.5864,-0.5852,-0.5852,-0.5848,-0.5839,-0.5836,-0.5832,-0.5823,-0.5817,-0.5816,-0.5818,-0.5815,-0.5815,-0.5812,-0.5821,-0.5822,-0.5823,-0.5825,-0.5826,-0.5812,-0.5812,-0.5812,-0.5812,0,-0.5892,-0.5889,-0.5891,-0.5882,-0.5879,-0.5878,-0.5867,-0.5865,-0.5859,-0.5852,-0.5849,-0.5841,-0.5835,-0.5834,-0.5828,-0.5831,-0.5829,-0.5823,-0.5816,-0.5825,-0.5827,-0.5828,-0.5813,-0.5813,-0.5813,-0.5813,0,0,-0.5914,-0.5899,-0.59,-0.5895,-0.5885,-0.5883,-0.5881,-0.5875,-0.5873,-0.5867,-0.5865,-0.5859,-0.5854,-0.585,-0.5842,-0.5842,-0.5849,-0.5836,-0.5836,-0.5839,-0.5851,-0.5856,-0.5857,-0.5844,-0.5844,-0.5844,-0.5852,0,-0.5925,-0.5922,-0.5912,-0.5912,-0.5909,-0.5897,-0.5895,-0.5889,-0.5882,-0.5878,-0.5871,-0.5867,-0.586,-0.5857,-0.5856,-0.5848,-0.5852,-0.5848,-0.5842,-0.5842,-0.5845,-0.5859,-0.5864,-0.5871,-0.5853,-0.5853,-0.5853,0,-0.5937,-0.5931,-0.593,-0.5919,-0.5917,-0.5917,-0.5909,-0.5906,-0.5898,-0.5893,-0.5888,-0.588,-0.5877,-0.587,-0.5866,-0.5864,-0.5861,-0.5856,-0.5856,-0.5856,-0.5848,-0.5858,-0.5873,-0.5874,-0.5854,-0.5854,-0.5854,0,-0.5953,-0.5945,-0.5943,-0.594,-0.5927,-0.5926,-0.5921,-0.5912,-0.5909,-0.5902,-0.59,-0.5893,-0.589,-0.5885,-0.5875,-0.5871,-0.5872,-0.5864,-0.5867,-0.5867,-0.5868,-0.5868,-0.5883,-0.5866,-0.5866,-0.5866,-0.5866,0,-0.5965,-0.5965,-0.595,-0.5949,-0.5948,-0.5937,-0.5937,-0.593,-0.5922,-0.5919,-0.5909,-0.5906,-0.5893,-0.5889,-0.5881,-0.5879,-0.5877,-0.5873,-0.5871,-0.5874,-0.5874,-0.5872,-0.5871,-0.5866,-0.5866,-0.5866,-0.5866,0,-0.5984,-0.5973,-0.5971,-0.5958,-0.5955,-0.5955,-0.5944,-0.5943,-0.5935,-0.5932,-0.593,-0.5918,-0.5912,-0.5902,-0.5894,-0.5888,-0.5887,-0.5884,-0.589,-0.5889,-0.5892,-0.5892,-0.5906,-0.5907,-0.589,-0.589,-0.589,0,-0.5992,-0.5992,-0.5979,-0.5977,-0.5972,-0.5967,-0.5964,-0.5952,-0.5948,-0.5938,-0.5938,-0.5931,-0.5926,-0.5917,-0.5907,-0.5901,-0.5897,-0.5902,-0.5896,-0.5899,-0.5897,-0.5897,-0.5896,-0.5904,-0.5904,-0.5904,-0.5904,0,-0.6009,-0.6004,-0.5999,-0.5992,-0.5987,-0.5981,-0.5974,-0.5973,-0.5959,-0.5956,-0.595,-0.5945,-0.5936,-0.593,-0.5922,-0.5916,-0.5908,-0.5906,-0.5907,-0.591,-0.5913,-0.5911,-0.5894,-0.5906,-0.5906,-0.5906,-0.5906,-0.5906,-0.6022,-0.6021,-0.6012,-0.6006,-0.6,-0.5994,-0.5991,-0.5983,-0.5978,-0.597,-0.5963,-0.5958,-0.5948,-0.5936,-0.5931,-0.5926,-0.5922,-0.5923,-0.5923,-0.5923,-0.5924,-0.5914,-0.5924,-0.5924,-0.5924,-0.5924,-0.5924,0,-0.6038,-0.6031,-0.6026,-0.6017,-0.6013,-0.6005,-0.5997,-0.5994,-0.5989,-0.5981,-0.5975,-0.5968,-0.5962,-0.5951,-0.5944,-0.5942,-0.5938,-0.594,-0.594,-0.5939,-0.5928,-0.5928,-0.5943,-0.5943,-0.5943,-0.5943,-0.5943,-0.5943,-0.6046,-0.6043,-0.6037,-0.6031,-0.6024,-0.6018,-0.6014,-0.6008,-0.6002,-0.5994,-0.5988,-0.5981,-0.5972,-0.5964,-0.5957,-0.5954,-0.5952,-0.5955,-0.5951,-0.5941,-0.594,-0.5938,-0.5938,-0.5955,-0.5955,-0.5962,-0.5962,-0.5962]},{"header":{"parameterUnit":"m.s-1","parameterCategory":1,"la1":30.2991,"la2":30.254,"lo1":-89.0895,"lo2":-89.0444,"dy":0.0017,"dx":0.0017,"nx":28,"ny":28,"refTime":"2024-04-22T03:00:00:Z","depth":0,"parameterNumber":3,"parameterNumberName":"V-component_of_WINDS"},"data":[0,0,0,0,0,0,0,0,0,0,0,0,0,0,0,0,0,0,0,0,0,0,0,0,0,0,0,0,0,0,0,0,0,0,0,0,0,0,0,0,0,0,0,0,0,0,0,0,0,0,0,0,0,0,0,0,0,0,-3.4484,-3.4484,0,-3.4554,-3.4555,-3.4556,-3.4589,-3.4589,-3.4589,-3.4589,-3.4656,-3.4658,-3.466,0,0,0,0,0,0,0,0,0,0,0,0,0,-3.4375,-3.4377,-3.4484,-3.4485,-3.4485,-3.4554,-3.4555,-3.4556,-3.4589,-3.4589,-3.4589,-3.4589,-3.4656,-3.4658,-3.466,0,0,0,0,0,0,0,0,0,0,0,0,0,-3.4431,-3.4377,-3.4483,-3.451,-3.4513,-3.4554,-3.4555,-3.4556,-3.4589,-3.4589,-3.4589,-3.4589,-3.4655,-3.4658,-3.466,-3.4678,0,0,-3.4669,-3.467,0,0,0,0,0,0,0,0,-3.4428,-3.4435,-3.4505,-3.4508,-3.4512,-3.4563,-3.4541,-3.4597,-3.4589,-3.456,-3.4589,-3.4589,-3.4625,-3.463,-3.4643,-3.4681,-3.4684,-3.4669,-3.4671,-3.4672,-3.4672,0,0,0,0,0,0,0,-3.4424,-3.4432,-3.4511,-3.4506,-3.451,-3.4518,-3.4526,-3.4552,-3.4592,-3.4563,-3.4565,-3.4573,-3.4627,-3.464,-3.4645,-3.4685,-3.4669,-3.4671,-3.4673,-3.4674,-3.4743,-3.4743,0,0,0,0,0,0,-3.4416,-3.4429,-3.4509,-3.4513,-3.4469,-3.452,-3.4529,-3.4546,-3.4591,-3.4598,-3.4573,-3.4575,-3.4636,-3.4642,-3.4647,-3.4673,-3.4672,-3.4674,-3.4676,-3.4743,-3.4743,-3.4743,0,0,0,0,0,0,-3.4414,-3.4423,-3.4506,-3.4472,-3.4483,-3.4522,-3.4541,-3.4548,-3.4562,-3.46,-3.4606,-3.458,-3.4636,-3.4644,-3.4671,-3.4675,-3.4675,-3.4678,-3.4742,-3.4743,-3.4743,-3.4722,0,0,0,0,0,0,-3.4411,-3.4422,-3.443,-3.4472,-3.4485,-3.4529,-3.4542,-3.4549,-3.4567,-3.4569,-3.4608,-3.4614,-3.4637,-3.4667,-3.4674,-3.4679,-3.468,-3.4742,-3.4742,-3.4743,-3.4722,-3.4721,-3.4721,0,0,0,0,0,-3.4407,-3.442,-3.443,-3.4439,-3.4495,-3.4529,-3.4537,-3.4563,-3.4567,-3.4575,-3.46,-3.4613,-3.4674,-3.4669,-3.4677,-3.4684,-3.4742,-3.4742,-3.4743,-3.4723,-3.4722,-3.4721,0,0,0,0,0,0,-3.4375,-3.4425,-3.4438,-3.4465,-3.4493,-3.4535,-3.4545,-3.4561,-3.4587,-3.4588,-3.4618,-3.4627,-3.4652,-3.467,-3.4664,-3.4704,-3.4709,-3.4711,-3.4691,-3.469,-3.4689,-3.4684,-3.4682,0,0,0,0,0,-3.4371,-3.4396,-3.4438,-3.4458,-3.4472,-3.4506,-3.4522,-3.454,-3.457,-3.4581,-3.4608,-3.4635,-3.466,-3.4676,-3.4701,-3.4725,-3.4734,-3.4734,-3.4733,-3.4732,-3.4733,-3.4749,-3.4749,-3.4744,-3.4744,-3.4744,0,0,-3.4363,-3.4394,-3.4407,-3.4453,-3.4476,-3.4501,-3.4516,-3.454,-3.4558,-3.4584,-3.4613,-3.4633,-3.4665,-3.4692,-3.4704,-3.4708,-3.4737,-3.4732,-3.4731,-3.4733,-3.4749,-3.475,-3.475,-3.4745,-3.4745,-3.4745,0,0,-3.4362,-3.4387,-3.4408,-3.4432,-3.4469,-3.4492,-3.4497,-3.4538,-3.4553,-3.4582,-3.4603,-3.4624,-3.4667,-3.469,-3.4707,-3.4716,-3.473,-3.4723,-3.4719,-3.4733,-3.4734,-3.4734,-3.4739,-3.474,-3.4725,-3.4725,-3.4725,0,-3.4347,-3.4386,-3.4416,-3.444,-3.446,-3.4487,-3.4508,-3.4529,-3.4571,-3.4584,-3.4588,-3.4643,-3.4667,-3.4699,-3.4702,-3.4714,-3.4721,-3.4719,-3.4732,-3.4732,-3.4733,-3.4738,-3.4739,-3.4724,-3.4724,-3.4724,-3.4724,0,-3.4366,-3.4393,-3.4404,-3.4448,-3.4468,-3.449,-3.4523,-3.4541,-3.4558,-3.458,-3.461,-3.464,-3.4672,-3.4681,-3.4697,-3.4716,-3.4718,-3.4726,-3.4732,-3.4732,-3.4737,-3.4739,-3.4722,-3.4723,-3.4723,-3.4723,0,0,-3.4345,-3.4407,-3.4411,-3.4431,-3.4475,-3.4495,-3.4519,-3.4553,-3.4568,-3.4596,-3.4617,-3.4653,-3.4662,-3.4682,-3.47,-3.4713,-3.472,-3.472,-3.4722,-3.472,-3.4745,-3.4739,-3.4741,-3.473,-3.473,-3.4731,-3.4743,0,-3.435,-3.4396,-3.4425,-3.4458,-3.4484,-3.4511,-3.4532,-3.456,-3.4582,-3.4606,-3.463,-3.4656,-3.4665,-3.4677,-3.4691,-3.4717,-3.4726,-3.4716,-3.4749,-3.475,-3.4741,-3.4743,-3.4736,-3.4746,-3.4745,-3.4745,-3.4745,0,-3.4362,-3.4393,-3.443,-3.4473,-3.4485,-3.4503,-3.4537,-3.456,-3.4593,-3.4608,-3.4631,-3.4651,-3.4677,-3.468,-3.4716,-3.4709,-3.4724,-3.4739,-3.474,-3.4744,-3.4748,-3.4748,-3.475,-3.4751,-3.4748,-3.4748,-3.4748,0,-3.4345,-3.4395,-3.4424,-3.4441,-3.4491,-3.4504,-3.4525,-3.4559,-3.4578,-3.4607,-3.462,-3.4651,-3.4668,-3.4692,-3.4719,-3.4719,-3.4753,-3.4759,-3.4766,-3.4766,-3.4772,-3.4771,-3.4777,-3.4781,-3.4781,-3.4781,-3.4781,0,-3.4348,-3.437,-3.4418,-3.4435,-3.4461,-3.4493,-3.4517,-3.454,-3.457,-3.4593,-3.4617,-3.4637,-3.4672,-3.4697,-3.4718,-3.4745,-3.4752,-3.4765,-3.4771,-3.4764,-3.4762,-3.4774,-3.4774,-3.4781,-3.4781,-3.4781,-3.4781,0,-3.4332,-3.4365,-3.4399,-3.4445,-3.4457,-3.4474,-3.4513,-3.4531,-3.4555,-3.4584,-3.4592,-3.463,-3.466,-3.469,-3.473,-3.4744,-3.4771,-3.4778,-3.4761,-3.4764,-3.477,-3.477,-3.4784,-3.4788,-3.4789,-3.4788,-3.4788,0,-3.4332,-3.435,-3.4399,-3.4417,-3.4439,-3.4467,-3.4487,-3.452,-3.4541,-3.4581,-3.4594,-3.4627,-3.4655,-3.4702,-3.4732,-3.4763,-3.4771,-3.4775,-3.4776,-3.4769,-3.4773,-3.4772,-3.4774,-3.4774,-3.4773,-3.4773,-3.4773,0,-3.433,-3.4346,-3.4375,-3.4411,-3.4436,-3.4465,-3.4495,-3.4508,-3.4546,-3.4568,-3.4601,-3.4622,-3.4665,-3.4697,-3.4732,-3.4753,-3.477,-3.4773,-3.4776,-3.4769,-3.4759,-3.4766,-3.4759,-3.4772,-3.4772,-3.4772,-3.4772,-3.4772,-3.4323,-3.4341,-3.4379,-3.4411,-3.4438,-3.4466,-3.4486,-3.4514,-3.4542,-3.4581,-3.4598,-3.4631,-3.4665,-3.4714,-3.4735,-3.4761,-3.4765,-3.477,-3.4771,-3.4772,-3.4771,-3.4755,-3.4767,-3.4767,-3.4767,-3.4768,-3.4768,0,-3.4322,-3.4348,-3.4378,-3.4421,-3.4447,-3.4462,-3.4497,-3.4517,-3.4546,-3.4578,-3.4606,-3.4644,-3.4675,-3.4709,-3.4743,-3.4757,-3.4765,-3.4765,-3.4764,-3.4769,-3.4765,-3.4759,-3.4757,-3.4757,-3.4757,-3.4757,-3.4757,-3.4757,-3.4324,-3.4356,-3.4377,-3.4423,-3.4449,-3.4483,-3.4501,-3.4527,-3.4553,-3.4595,-3.4623,-3.4645,-3.4677,-3.4714,-3.4744,-3.4753,-3.4764,-3.4762,-3.4773,-3.4768,-3.4769,-3.477,-3.4764,-3.4764,-3.4764,-3.4775,-3.4775,-3.4775]}]]